Temperature
18 18 19 19 19 18 18 17 17 17 16 16 16 15 15 15 15 15 15 15 14 14 14 14 14 14 14 14 14 14 14 15 15 15 15 15 15 15 15 15 14 13 13
20 19 19 19 19 18 18 17 17 17 16 16 15 15 15 15 15 15 15 14 14 14 14 14 14 14 14 14 14 14 14 14 15 15 15 14 15 14 14 14 14 13 13
20 19 19 19 19 19 18 18 18 17 17 16 15 15 15 15 15 15 15 14 13 13 13 14 14 14 14 14 14 14 14 14 14 14 14 14 14 14 14 14 13 13 12
20 19 19 19 19 19 19 18 18 18 17 16 15 15 14 15 15 15 15 14 13 13 13 13 14 14 14 14 14 14 13 13 13 13 13 13 13 13 13 14 13 13 13
20 20 19 19 19 19 19 19 19 18 17 16 15 15 15 15 15 15 15 15 14 14 13 13 14 14 14 14 14 13 13 13 13 13 13 13 13 13 13 13 13 13 13
20 20 19 19 19 19 19 19 19 18 17 16 15 15 15 15 15 15 15 15 14 14 14 14 14 14 14 14 14 13 13 13 13 13 12 12 13 13 13 13 13 13 13
20 19 19 18 19 19 19 19 19 18 17 16 15 15 15 15 15 15 15 15 15 14 14 14 14 14 14 14 14 13 13 13 13 13 12 12 13 13 13 13 13 13 13
20 19 18 18 18 18 19 19 19 18 17 16 15 15 15 14 14 14 14 15 14 14 14 14 14 14 14 14 13 13 13 13 13 12 12 12 12 13 13 13 13 13 13
19 19 18 18 18 18 18 19 19 19 18 17 16 15 15 14 14 14 14 14 14 14 14 14 14 14 14 14 13 13 13 13 13 12 12 12 12 12 12 12 12 12 12
18 18 18 18 17 17 18 18 18 18 18 17 17 16 15 14 14 14 14 14 14 14 14 14 14 14 14 13 13 13 13 13 13 12 12 12 12 12 12 11 11 11 11
17 17 17 17 17 17 17 17 18 18 18 17 17 16 15 14 14 14 14 14 14 14 14 14 13 13 13 13 13 13 13 13 13 12 12 12 11 11 11 11 10 10 10
17 17 17 17 17 17 17 17 17 17 18 17 17 16 15 15 14 14 14 14 14 14 13 13 13 13 13 13 13 13 13 13 12 12 12 11 11 10 10 10 10 10 9
18 18 17 17 17 17 17 17 17 17 17 17 17 16 15 15 14 14 14 14 14 14 13 13 13 13 13 13 12 13 13 13 12 12 11 11 10 10 9 9 9 9 9
19 18 18 17 17 17 17 17 17 17 17 17 17 16 15 15 15 14 14 14 14 13 13 13 13 12 12 12 12 12 13 12 12 11 11 10 10 9 9 9 9 9 9
19 19 18 18 17 17 17 16 16 16 17 17 17 16 16 15 15 14 14 13 13 13 13 12 12 12 12 12 12 12 12 12 11 11 10 10 9 9 9 8 8 8 8
18 18 18 18 18 17 17 17 17 16 16 16 16 16 16 15 15 14 13 13 13 12 12 12 12 12 12 12 12 12 12 11 11 10 10 9 9 9 8 8 8 8 8
18 18 18 18 18 18 18 18 17 17 16 16 16 15 15 15 15 14 13 13 13 12 12 12 12 12 12 12 12 12 11 11 11 10 9 9 9 8 8 8 8 8 8
19 18 18 18 18 18 18 18 18 17 16 16 16 15 15 15 14 14 13 13 12 12 12 12 12 12 12 12 12 11 11 11 10 10 9 9 8 8 8 7 7 7 7
19 19 18 18 18 18 18 18 18 17 17 16 16 15 15 14 14 13 13 13 12 12 12 12 12 12 12 12 12 11 11 10 10 9 9 8 8 8 7 7 7 7 7
18 19 19 18 18 18 18 18 18 17 17 16 16 15 15 14 13 13 13 12 12 12 12 12 12 12 12 12 11 11 11 10 10 9 8 8 8 7 7 7 6 6 6
18 18 18 18 18 18 17 17 17 17 16 16 15 15 14 14 13 13 12 12 12 12 12 12 12 12 12 11 11 11 10 10 9 9 8 8 7 7 6 6 6 5 5
17 17 18 18 18 18 17 17 17 18 17 17 16 15 14 14 13 13 12 12 12 12 12 12 12 12 11 11 11 11 10 9 9 8 8 7 7 6 6 5 5 5 4
17 17 17 17 17 17 17 17 17 17 16 16 16 15 15 14 14 13 13 12 12 12 12 12 12 12 11 11 11 11 10 10 9 8 8 7 6 6 5 5 4 4 4
17 17 17 17 17 17 17 17 16 16 16 16 16 16 15 15 14 14 13 13 12 12 12 12 11 11 11 11 11 10 10 10 9 8 7 7 6 6 5 5 4 4 4
16 16 16 16 17 17 17 16 16 16 16 16 16 16 16 15 15 14 13 13 12 12 12 11 11 11 11 11 10 10 9 9 8 8 7 7 6 5 5 4 4 4 3
16 16 16 16 16 16 16 16 16 16 16 16 16 16 16 15 15 14 13 13 12 12 11 11 11 11 10 10 10 9 9 8 8 7 6 6 5 5 5 4 4 3 2
Wind_Speed
9 13 21 20 20 20 19 19 19 20 20 20 20 18 17 15 13 12 11 10 10 11 12 14 17 17 16 14 13 12 11 11 11 10 9 8 8 8 7 7 8 5 6
12 18 22 21 20 20 19 19 19 19 20 20 19 18 16 15 13 12 11 11 12 13 15 17 17 16 14 12 11 10 10 9 8 7 5 4 4 5 6 6 5 4 4
16 18 21 21 21 20 19 19 18 19 20 20 19 18 16 14 13 12 11 11 12 13 15 15 15 14 13 11 9 9 8 7 6 4 2 3 1 3 5 4 3 3 3
18 19 19 21 21 20 19 18 18 19 20 20 19 17 16 15 14 13 12 12 12 12 12 13 13 12 11 10 9 8 7 5 6 5 4 6 3 4 4 3 2 2 1
15 18 19 22 21 20 19 18 18 19 20 20 19 18 17 15 14 13 13 13 12 11 11 11 11 11 10 8 7 6 5 6 7 5 6 7 2 3 4 3 2 1 1
12 17 20 22 21 20 19 18 19 20 20 20 19 18 17 16 14 14 13 13 12 11 11 11 10 9 8 6 5 4 4 7 7 6 8 6 2 4 5 5 4 3 1
14 16 20 21 21 20 19 19 20 20 20 20 19 18 17 15 15 14 13 12 11 10 10 10 9 8 6 5 4 4 6 8 8 6 6 5 4 6 8 8 8 9 9
17 16 19 21 20 20 19 19 20 21 21 20 18 17 16 15 15 14 13 12 11 10 9 8 8 8 6 5 4 5 7 7 7 8 7 6 7 9 11 13 14 16 17
14 14 15 18 19 19 19 19 20 21 20 20 18 17 15 14 15 15 13 12 10 9 8 8 8 7 6 5 5 7 7 8 10 9 7 7 10 12 14 16 17 18 18
12 13 12 15 15 16 17 18 19 19 19 19 18 16 15 14 15 16 14 12 10 9 8 8 8 7 6 6 7 9 12 14 12 9 8 10 13 13 13 14 14 15 15
13 12 11 11 13 14 15 17 18 18 18 17 17 17 15 13 14 16 14 13 11 9 9 8 7 6 5 6 9 12 13 13 11 9 8 12 13 12 12 12 12 12 12
16 14 12 12 12 13 14 14 15 15 16 16 16 16 14 13 14 14 15 14 12 10 8 7 6 5 4 6 9 11 12 12 11 9 10 13 12 12 11 11 11 11 11
16 16 15 14 13 13 9 11 11 12 13 14 16 16 14 12 11 12 12 11 11 9 6 5 5 5 5 6 8 10 11 11 10 10 11 13 12 11 11 10 10 10 10
16 17 16 16 14 13 12 10 11 10 10 11 14 16 13 8 8 9 9 10 9 8 6 5 5 6 7 8 9 10 10 10 11 11 12 13 12 11 10 9 9 9 9
15 17 17 17 16 14 11 9 11 10 11 13 14 16 14 8 6 7 8 9 9 8 7 6 7 7 6 7 8 9 8 9 10 11 12 13 12 10 9 8 8 8 8
12 15 17 18 18 16 14 13 10 12 13 14 14 15 17 13 10 8 6 7 8 9 9 8 8 6 4 5 5 7 8 9 10 10 11 12 12 10 8 7 7 8 8
11 12 15 19 18 18 17 15 11 12 13 11 13 17 17 16 14 11 6 6 8 11 11 10 8 6 4 4 4 4 5 7 9 9 10 11 11 9 7 6 6 7 8
10 11 15 16 18 19 17 15 11 12 12 11 14 16 18 18 17 12 7 7 11 13 10 6 5 4 4 3 2 2 2 5 8 9 9 10 10 8 6 5 4 5 7
11 11 14 15 18 19 17 14 12 10 11 11 14 14 16 18 18 14 8 8 13 9 5 6 4 4 3 2 2 2 1 2 5 8 7 9 9 8 6 4 3 3 4
12 11 12 15 17 17 15 11 9 10 11 10 11 12 16 16 18 14 9 10 12 7 6 6 5 3 3 2 2 3 2 1 2 4 6 8 8 8 7 5 3 1 2
10 10 11 13 15 14 12 12 12 13 11 11 9 13 16 16 18 14 9 9 9 8 8 8 5 4 2 2 3 2 3 2 1 1 3 4 4 6 6 5 4 3 3
10 10 10 12 13 14 14 14 12 13 11 11 10 11 16 17 18 15 13 12 10 9 9 7 6 4 2 2 3 3 1 2 2 1 1 2 2 2 2 2 1 3 5
10 11 10 11 12 13 13 9 6 4 3 5 8 11 12 16 17 16 14 13 11 11 11 9 7 7 5 2 2 4 4 5 2 2 2 1 1 2 1 1 2 5 7
11 10 10 10 10 12 12 11 12 11 10 10 11 10 10 12 15 17 16 14 14 11 11 10 7 5 6 4 2 1 2 3 3 1 2 2 1 1 1 2 5 8 10
9 8 8 9 9 10 12 15 16 14 11 7 7 10 10 10 11 13 15 13 14 11 12 10 8 7 5 5 4 3 2 2 2 3 3 3 3 2 2 3 5 6 9
5 5 6 7 8 9 11 14 17 16 12 11 10 11 10 7 8 11 12 12 12 11 12 11 9 9 6 5 4 4 4 3 3 3 4 4 4 4 3 4 3 3 6
Wind_Direction
159 162 153 148 142 138 136 134 133 133 132 129 126 122 120 117 113 109 104 103 103 106 116 123 119 113 107 101 95 89 86 86 82 77 71 66 68 75 77 78 78 67 82
150 157 154 149 144 140 137 135 135 136 136 134 131 127 123 119 114 111 109 107 103 100 108 112 112 110 106 101 96 93 91 87 82 78 75 65 48 68 80 85 85 85 86
148 154 154 150 146 142 139 139 140 141 141 138 134 130 126 121 117 115 115 113 106 100 102 106 107 107 106 103 100 97 93 85 71 59 97 151 128 78 83 86 86 88 94
149 152 155 152 148 145 143 143 145 146 145 141 137 133 129 124 122 122 121 119 115 110 107 106 107 108 108 106 103 99 88 65 42 41 105 163 183 77 81 84 81 75 53
147 151 157 154 151 148 147 147 148 150 148 144 141 137 133 130 128 127 126 124 122 120 116 113 111 111 110 108 103 93 66 35 30 56 123 153 174 69 66 64 57 36 319
144 149 159 156 155 152 151 151 152 152 150 147 145 143 139 136 134 133 131 131 130 128 124 120 118 117 115 112 104 83 45 28 36 82 126 136 105 63 60 56 51 39 0
147 151 161 159 158 156 155 154 155 154 153 151 150 149 148 145 143 142 142 141 140 136 132 129 127 125 122 113 95 63 34 28 49 103 122 112 79 69 62 59 57 58 59
152 155 163 163 162 160 160 159 158 158 157 157 157 156 155 154 153 154 154 153 151 146 141 138 134 130 126 112 83 55 40 49 77 99 102 89 82 77 71 68 67 64 61
153 157 162 165 165 165 164 163 163 162 161 161 162 161 160 161 163 163 163 163 161 156 151 145 139 134 124 102 74 56 57 91 111 109 97 90 89 83 77 72 68 64 60
158 162 162 164 166 167 168 169 168 166 166 166 164 161 164 170 172 169 170 171 168 162 155 148 141 132 113 85 68 72 88 98 101 99 97 97 94 86 78 72 68 65 61
168 169 166 164 167 168 170 174 171 170 170 167 163 165 168 172 171 172 174 173 169 164 159 150 140 128 100 66 69 88 99 103 98 96 100 104 98 90 81 76 71 66 62
178 179 176 173 171 170 176 175 174 174 174 169 169 170 171 168 168 171 175 173 171 169 163 152 137 125 91 67 75 93 105 108 97 94 106 106 101 95 88 80 73 67 60
181 183 184 181 177 176 177 174 178 177 176 176 177 178 174 170 171 170 172 174 173 167 156 137 112 107 101 88 84 95 110 109 100 95 104 105 104 100 94 85 76 68 60
182 189 186 185 183 183 180 181 183 182 183 185 188 187 177 175 175 174 176 176 174 169 155 138 121 110 104 97 96 101 111 114 108 102 104 106 105 103 96 87 77 66 55
189 192 190 188 187 185 183 184 187 190 191 192 194 196 187 180 179 178 181 180 180 170 154 139 127 118 106 92 92 104 116 126 118 112 110 109 108 104 96 85 71 57 46
205 199 193 192 192 187 188 189 189 192 193 194 198 198 192 186 181 178 176 179 178 168 155 144 135 122 102 92 86 103 123 134 133 126 121 118 115 111 101 85 67 52 39
212 206 198 197 194 192 192 192 190 192 192 194 199 201 195 189 183 179 174 173 169 158 143 130 119 105 91 81 80 98 126 143 149 143 136 131 127 123 116 97 73 52 36
212 208 205 203 198 197 195 194 193 191 191 194 196 199 197 190 182 175 171 169 160 150 142 130 124 101 89 87 88 77 113 148 160 162 156 153 150 146 141 126 92 56 35
227 210 206 206 200 200 199 195 194 189 191 193 194 194 193 186 177 170 167 161 154 145 139 136 121 121 118 114 122 116 108 144 164 169 175 179 177 173 171 164 133 80 29
239 222 210 207 205 202 200 195 192 191 192 191 192 191 184 181 173 166 161 157 152 142 138 132 125 104 112 126 92 77 47 90 157 172 185 190 196 194 189 178 170 169 359
245 234 219 211 209 203 198 195 194 198 197 194 193 187 181 176 171 165 161 158 156 155 154 143 125 118 110 122 104 62 14 26 102 182 190 186 194 196 190 187 201 233 289
240 237 224 215 212 206 204 200 199 198 197 194 188 184 182 176 173 171 165 167 162 151 149 152 140 131 124 123 138 126 93 326 322 8 254 195 181 152 144 164 241 284 292
245 240 234 219 214 210 206 198 186 169 148 173 186 188 185 178 175 172 170 166 166 162 167 167 156 147 149 136 141 150 157 206 248 317 354 37 128 118 88 55 3 334 319
246 244 240 232 219 210 202 195 184 187 189 191 191 187 179 178 177 173 171 168 169 167 167 170 160 152 143 151 139 105 133 143 159 242 312 344 5 118 64 360 340 337 340
250 250 249 243 231 215 204 200 199 201 195 180 171 169 172 174 176 173 171 168 168 167 166 163 157 152 147 154 155 149 126 93 113 156 246 305 324 300 303 310 324 345 359
269 266 264 257 248 227 210 204 202 198 177 165 170 174 173 168 171 174 171 168 167 165 165 162 156 154 148 143 143 145 148 151 170 166 209 251 277 291 299 298 316 356 25
Height
1513 1516 1518 1519 1521 1523 1524 1526 1527 1528 1529 1530 1531 1532 1532 1532 1532 1532 1532 1532 1532 1533 1533 1534 1535 1536 1537 1537 1537 1537 1537 1537 1537 1537 1537 1537 1537 1537 1536 1536 1535 1535 1535
1512 1515 1517 1519 1521 1523 1524 1525 1527 1528 1529 1530 1530 1531 1532 1532 1532 1532 1532 1532 1533 1534 1534 1535 1536 1537 1537 1538 1537 1537 1536 1536 1537 1537 1537 1537 1537 1537 1536 1536 1536 1536 1536
1513 1515 1517 1519 1521 1523 1524 1525 1527 1528 1529 1529 1530 1531 1532 1532 1532 1532 1532 1533 1534 1535 1536 1536 1537 1538 1538 1538 1537 1537 1537 1537 1537 1537 1538 1538 1537 1537 1537 1537 1537 1536 1536
1513 1515 1517 1519 1521 1523 1524 1525 1526 1527 1528 1529 1530 1531 1532 1532 1532 1532 1532 1533 1534 1535 1536 1537 1538 1538 1538 1538 1538 1538 1538 1538 1538 1538 1538 1538 1538 1539 1539 1538 1538 1537 1537
1513 1515 1517 1519 1521 1523 1524 1525 1526 1527 1528 1529 1530 1531 1532 1532 1533 1533 1533 1534 1534 1536 1537 1538 1538 1539 1539 1539 1539 1539 1539 1539 1539 1539 1539 1539 1539 1540 1540 1539 1539 1539 1538
1513 1515 1517 1519 1521 1523 1524 1525 1526 1527 1528 1529 1530 1531 1532 1533 1534 1534 1534 1535 1535 1536 1537 1538 1539 1539 1540 1540 1540 1540 1540 1540 1540 1540 1540 1540 1541 1541 1540 1540 1540 1539 1539
1512 1515 1517 1519 1521 1523 1524 1525 1526 1527 1528 1530 1531 1532 1533 1534 1535 1535 1536 1536 1537 1538 1539 1539 1540 1541 1541 1541 1541 1541 1541 1540 1540 1540 1541 1541 1541 1541 1541 1541 1540 1540 1539
1512 1514 1517 1519 1521 1523 1524 1525 1526 1527 1528 1530 1531 1532 1533 1534 1535 1536 1537 1538 1538 1539 1540 1540 1541 1541 1542 1542 1541 1541 1541 1540 1541 1541 1541 1542 1542 1542 1541 1541 1540 1540 1539
1513 1514 1516 1518 1521 1523 1524 1525 1526 1527 1528 1530 1531 1532 1533 1535 1536 1537 1538 1539 1539 1540 1541 1541 1542 1542 1542 1542 1541 1541 1540 1540 1541 1541 1542 1542 1542 1541 1541 1540 1540 1539 1538
1513 1514 1516 1518 1520 1522 1523 1525 1526 1527 1528 1529 1531 1532 1533 1535 1536 1537 1538 1539 1540 1541 1541 1541 1542 1542 1542 1541 1541 1540 1540 1541 1541 1541 1541 1541 1541 1541 1540 1539 1538 1538 1537
1512 1514 1515 1517 1519 1521 1522 1524 1525 1526 1528 1529 1530 1531 1533 1534 1535 1537 1538 1539 1540 1540 1541 1541 1541 1541 1541 1541 1541 1540 1540 1540 1540 1541 1540 1540 1540 1539 1538 1538 1537 1536 1535
1510 1512 1514 1515 1517 1519 1520 1522 1523 1525 1526 1527 1529 1530 1531 1533 1534 1536 1537 1538 1539 1540 1540 1541 1541 1541 1541 1541 1540 1540 1540 1540 1540 1539 1539 1539 1538 1537 1537 1536 1535 1535 1534
1508 1510 1512 1514 1515 1517 1518 1520 1521 1523 1524 1526 1527 1529 1530 1531 1533 1534 1535 1537 1538 1538 1539 1539 1540 1540 1540 1540 1539 1539 1539 1539 1538 1538 1538 1537 1537 1536 1535 1535 1534 1534 1533
1505 1507 1509 1511 1512 1514 1516 1517 1519 1520 1522 1523 1525 1527 1528 1529 1530 1532 1533 1535 1536 1537 1538 1538 1539 1539 1539 1539 1538 1538 1538 1537 1537 1536 1536 1536 1535 1535 1534 1534 1533 1533 1532
1503 1504 1506 1508 1509 1511 1513 1514 1516 1517 1519 1521 1523 1524 1525 1527 1528 1530 1532 1533 1535 1536 1537 1537 1538 1538 1538 1538 1537 1537 1536 1536 1535 1535 1535 1534 1534 1534 1533 1533 1532 1531 1531
1500 1501 1503 1504 1506 1507 1509 1510 1512 1514 1516 1518 1519 1521 1523 1524 1526 1528 1530 1531 1533 1534 1535 1536 1537 1537 1537 1536 1536 1535 1534 1534 1534 1533 1533 1533 1533 1532 1532 1532 1531 1530 1529
1497 1498 1499 1501 1502 1503 1505 1506 1508 1510 1512 1514 1516 1518 1520 1521 1523 1525 1527 1529 1531 1532 1533 1534 1535 1535 1536 1535 1534 1533 1533 1532 1532 1532 1532 1532 1531 1531 1531 1530 1530 1529 1528
1491 1493 1495 1497 1498 1499 1500 1502 1504 1506 1508 1510 1512 1514 1516 1518 1520 1522 1524 1526 1528 1530 1531 1532 1533 1534 1534 1533 1532 1532 1531 1531 1530 1530 1530 1530 1530 1530 1529 1529 1528 1527 1526
1485 1487 1489 1491 1492 1494 1496 1498 1500 1502 1504 1506 1508 1510 1512 1514 1517 1519 1521 1524 1525 1527 1529 1530 1531 1532 1532 1531 1531 1530 1529 1529 1529 1528 1528 1529 1528 1528 1527 1527 1526 1525 1523
1478 1481 1482 1484 1486 1489 1491 1494 1495 1497 1499 1501 1503 1506 1508 1510 1513 1515 1518 1520 1522 1524 1526 1528 1529 1529 1530 1529 1529 1528 1528 1527 1527 1527 1527 1526 1526 1526 1525 1524 1523 1522 1520
1471 1473 1475 1477 1479 1482 1484 1486 1488 1491 1493 1495 1498 1500 1504 1506 1509 1511 1514 1517 1519 1521 1523 1525 1526 1527 1527 1527 1527 1526 1526 1525 1525 1525 1524 1524 1524 1523 1522 1521 1520 1519 1517
1464 1465 1467 1469 1472 1474 1476 1478 1481 1484 1486 1489 1492 1495 1498 1501 1504 1506 1509 1512 1515 1517 1520 1521 1523 1523 1524 1524 1524 1523 1523 1524 1522 1522 1522 1521 1521 1520 1519 1518 1517 1515 1513
1457 1459 1461 1462 1464 1467 1469 1473 1476 1479 1481 1483 1486 1489 1492 1494 1497 1500 1504 1507 1510 1513 1515 1517 1519 1520 1521 1521 1521 1521 1520 1519 1520 1519 1519 1518 1518 1517 1516 1515 1513 1511 1508
1451 1453 1454 1455 1457 1459 1462 1464 1466 1468 1470 1473 1478 1482 1485 1488 1492 1495 1498 1501 1504 1507 1510 1513 1515 1516 1517 1517 1517 1517 1517 1516 1516 1516 1516 1515 1514 1514 1513 1511 1510 1507 1504
1445 1446 1447 1448 1449 1451 1454 1456 1458 1461 1464 1468 1472 1475 1479 1482 1485 1488 1492 1495 1498 1501 1505 1508 1510 1511 1512 1513 1513 1513 1512 1512 1512 1512 1511 1511 1511 1510 1509 1507 1505 1502 1499
1440 1440 1441 1441 1442 1444 1446 1447 1449 1452 1456 1460 1463 1467 1471 1475 1478 1482 1485 1489 1492 1495 1499 1502 1505 1506 1508 1509 1509 1509 1508 1508 1507 1507 1506 1505 1505 1504 1503 1502 1499 1496 1493